Greenville, ME

9:01 PM EDT on October 22, 2019 (GMT -0400)
Greenville

Weather History for KGNR - August, 2019

Change the Weather History Date:

Thursday, August 29, 2019

  Actual Average (KMLT) Record (KMLT)
Temperature  
Mean Temperature 64 °F -  
Max Temperature 73 °F 73 °F 92 °F (2010)
Min Temperature 55 °F 52 °F 32 °F (1986)
Degree Days  
Heating Degree Days 2    
Growing Degree Days 14 (Base 50)    
Moisture  
Dew Point 58 °F    
Average Humidity 84    
Maximum Humidity 100    
Minimum Humidity 66    
Precipitation  
Precipitation 0.48 in - - ()
Sea Level Pressure  
Sea Level Pressure 29.82 in    
Wind  
Wind Speed 5 mph ()    
Max Wind Speed 10 mph    
Max Gust Speed 17 mph    
Averages and records for this station are not official NWS values.
T = Trace of Precipitation, MM = Missing Value Source: Averaged Metar Reports

Daily Weather History Graph

Daily Weather History Graph

Search for Another Location

Airport or City:

Astronomy

Aug. 29, 2019 Rise Set
Actual Time 5:55 AM EDT 7:21 PM EDT
Civil Twilight 5:24 AM EDT 7:52 PM EDT
Nautical Twilight 4:47 AM EDT 8:29 PM EDT
Astronomical Twilight 4:07 AM EDT 9:09 PM EDT
Moon 4:30 AM EDT (8/29) 7:20 PM EDT (8/29)
Length of Visible Light 14h 27m
Length of Day
13h 26m
Waning Crescent, 1% of the Moon is Illuminated
Aug 29
Waning Crescent
Aug 30
New
Sep 5
First Quarter
Sep 14
Full
Sep 21
Last Quarter

Hourly Weather History & Observations

Time (EDT) Temp. Dew Point Humidity Pressure Visibility Wind Dir Wind Speed Gust Speed Precip Events Conditions
12:56 AM 55.0 °F 54.0 °F 96% 29.86 in - SE 5.8 mph - N/A   Unknown
1:56 AM 55.0 °F 54.0 °F 96% 29.84 in - Variable 3.5 mph - 0.01 in   Unknown
2:56 AM 55.0 °F 54.0 °F 96% 29.82 in - Calm Calm - 0.09 in   Unknown
3:56 AM 55.0 °F 55.0 °F 100% 29.81 in - Calm Calm - 0.24 in   Unknown
4:56 AM 57.9 °F 57.0 °F 97% 29.79 in - NNW 3.5 mph - 0.12 in   Unknown
5:56 AM 57.0 °F 55.9 °F 96% 29.81 in - NW 5.8 mph - 0.01 in   Unknown
6:56 AM 57.9 °F 57.0 °F 97% 29.81 in - NNW 8.1 mph - 0.01 in   Unknown
7:56 AM 59.0 °F 57.9 °F 96% 29.81 in - North 8.1 mph - N/A   Unknown
8:56 AM 61.0 °F 57.9 °F 90% 29.80 in - North 5.8 mph - N/A   Unknown
9:56 AM 62.1 °F 59.0 °F 90% 29.81 in - NNW 10.4 mph - N/A   Unknown
10:56 AM 66.0 °F 61.0 °F 84% 29.82 in - NNW 9.2 mph 17.3 mph N/A   Unknown
11:56 AM 66.9 °F 61.0 °F 81% 29.82 in - NW 9.2 mph - N/A   Unknown
12:56 PM 70.0 °F 62.1 °F 76% 29.82 in - North 10.4 mph - N/A   Unknown
1:56 PM 68.0 °F 61.0 °F 78% 29.81 in - NNW 9.2 mph - N/A   Unknown
2:56 PM 70.0 °F 61.0 °F 73% 29.81 in - North 3.5 mph - N/A   Unknown
3:56 PM 71.1 °F 61.0 °F 70% 29.81 in - North 4.6 mph - N/A   Unknown
4:56 PM 72.0 °F 61.0 °F 68% 29.80 in - WNW 6.9 mph - N/A   Unknown
5:56 PM 72.0 °F 60.1 °F 66% 29.79 in - NW 8.1 mph - N/A   Unknown
6:56 PM 66.9 °F 59.0 °F 76% 29.82 in - NNW 3.5 mph - N/A   Unknown
7:56 PM 64.9 °F 57.9 °F 78% 29.83 in - NW 5.8 mph - N/A   Unknown
8:56 PM 63.0 °F 55.9 °F 78% 29.85 in - NW 6.9 mph - N/A   Unknown
9:56 PM 62.1 °F 55.9 °F 80% 29.87 in - NNW 6.9 mph - N/A   Unknown
10:56 PM 61.0 °F 54.0 °F 78% 29.87 in - WNW 6.9 mph - N/A   Unknown
11:56 PM 62.1 °F 54.0 °F 75% 29.87 in - NW 8.1 mph - N/A   Unknown